TimeMDT,TemperatureF,Dew PointF,Humidity,Sea Level PressureIn,VisibilityMPH,Wind Direction,Wind SpeedMPH,Gust SpeedMPH,PrecipitationIn,Events,Conditions,WindDirDegrees,DateUTC
12:04 AM,12.2,8.6,85,30.03,1.0,NNE,19.6,29.9,0.01,Snow,Light Snow,30,2013-04-09 06:04:00
12:45 AM,12.2,8.6,85,30.07,0.8,NNE,16.1,27.6,0.03,Snow,Light Snow,20,2013-04-09 06:45:00
12:53 AM,12.9,8.1,81,30.24,0.5,NNE,15.0,-,0.04,Snow,Snow,30,2013-04-09 06:53:00
1:18 AM,12.2,8.6,85,30.09,1.0,NNE,16.1,-,0.02,Snow,Light Snow,20,2013-04-09 07:18:00
1:36 AM,12.2,8.6,85,30.07,0.8,NNE,19.6,24.2,0.03,Snow,Light Snow,20,2013-04-09 07:36:00
1:53 AM,12.0,8.1,84,30.25,0.5,NNE,18.4,-,0.04,Fog-Snow,Snow,20,2013-04-09 07:53:00
2:20 AM,12.2,6.8,79,30.06,1.0,NNE,18.4,-,0.02,Snow,Light Snow,30,2013-04-09 08:20:00
2:32 AM,12.2,6.8,79,30.06,1.5,NNE,17.3,-,0.03,Snow,Light Snow,30,2013-04-09 08:32:00
2:44 AM,12.2,6.8,79,30.05,2.5,NNE,18.4,27.6,0.03,Snow,Light Snow,30,2013-04-09 08:44:00
2:53 AM,12.0,7.0,80,30.22,2.5,NNE,18.4,-,0.03,Snow,Light Snow,30,2013-04-09 08:53:00
3:31 AM,12.2,6.8,79,30.07,3.0,NNE,17.3,-,0.00,Snow,Light Snow,20,2013-04-09 09:31:00
3:38 AM,12.2,6.8,79,30.08,2.0,NNE,16.1,-,0.00,Snow,Light Snow,30,2013-04-09 09:38:00
3:48 AM,12.2,6.8,79,30.09,1.5,NNE,11.5,-,0.00,Snow,Light Snow,20,2013-04-09 09:48:00
3:53 AM,12.0,7.0,80,30.27,1.2,NNE,17.3,23.0,0.00,Snow,Light Snow,20,2013-04-09 09:53:00
4:14 AM,10.4,6.8,85,30.09,1.0,NNE,11.5,-,0.01,Snow,Light Snow,30,2013-04-09 10:14:00
4:22 AM,12.2,6.8,79,30.10,1.2,NE,11.5,-,0.01,Snow,Light Snow,40,2013-04-09 10:22:00
4:51 AM,12.2,6.8,79,30.13,1.5,NE,6.9,-,0.02,Snow,Light Snow,40,2013-04-09 10:51:00
4:53 AM,12.0,7.0,80,30.32,1.5,NE,5.8,-,0.02,Snow,Light Snow,40,2013-04-09 10:53:00
5:14 AM,10.4,6.8,85,30.10,0.8,NE,15.0,19.6,0.01,Snow,Light Snow,50,2013-04-09 11:14:00
5:21 AM,10.4,6.8,85,30.09,1.0,NE,17.3,-,0.01,Snow,Light Snow,50,2013-04-09 11:21:00
5:53 AM,10.0,5.0,80,30.31,1.2,NE,16.1,-,0.02,Snow,Light Snow,40,2013-04-09 11:53:00
6:29 AM,10.4,5.0,79,30.11,0.5,NE,19.6,-,0.01,Snow,Snow,40,2013-04-09 12:29:00
6:53 AM,10.0,5.0,80,30.34,0.5,NE,18.4,25.3,0.03,Snow,Snow,40,2013-04-09 12:53:00
7:00 AM,8.6,3.2,79,30.13,0.8,NNE,18.4,27.6,0.00,Snow,Light Snow,30,2013-04-09 13:00:00
7:10 AM,8.6,3.2,79,30.15,0.8,NE,18.4,-,0.00,Snow,Light Snow,40,2013-04-09 13:10:00
7:53 AM,10.0,5.0,80,30.39,0.8,NE,13.8,-,0.02,Snow,Light Snow,40,2013-04-09 13:53:00
8:39 AM,10.4,3.2,73,30.17,0.8,NE,15.0,-,0.01,Snow,Light Snow,40,2013-04-09 14:39:00
8:53 AM,10.0,3.9,76,30.39,0.8,NE,17.3,26.5,0.01,Snow,Light Snow,40,2013-04-09 14:53:00
9:00 AM,10.4,3.2,73,30.17,1.2,NE,19.6,-,0.00,Snow,Light Snow,40,2013-04-09 15:00:00
9:12 AM,10.4,3.2,73,30.18,2.0,NE,18.4,-,0.00,Snow,Light Snow,40,2013-04-09 15:12:00
9:29 AM,10.4,3.2,73,30.18,6.0,NE,18.4,-,0.00,Snow,Light Snow,50,2013-04-09 15:29:00
9:49 AM,10.4,3.2,73,30.18,3.0,NNE,19.6,-,0.00,Snow,Light Snow,30,2013-04-09 15:49:00
9:53 AM,10.9,3.9,73,30.40,3.0,NNE,18.4,-,0.00,Snow,Light Snow,30,2013-04-09 15:53:00
10:53 AM,10.9,3.9,73,30.40,3.0,NE,19.6,-,0.00,Snow,Light Snow,50,2013-04-09 16:53:00
10:57 AM,10.4,3.2,73,30.18,2.5,NE,20.7,-,0.00,Snow,Light Snow,40,2013-04-09 16:57:00
11:00 AM,10.4,5.0,79,30.18,1.8,NE,19.6,-,0.00,Snow,Light Snow,40,2013-04-09 17:00:00
11:16 AM,10.4,3.2,73,30.19,0.8,NE,17.3,-,0.00,Snow,Light Snow,50,2013-04-09 17:16:00
11:26 AM,10.4,3.2,73,30.19,1.0,NE,17.3,-,0.00,Snow,Light Snow,40,2013-04-09 17:26:00
11:42 AM,10.4,5.0,79,30.19,0.8,NE,11.5,-,0.01,Snow,Light Snow,40,2013-04-09 17:42:00
11:53 AM,10.9,5.0,77,30.41,0.5,NE,13.8,-,0.01,Snow,Snow,50,2013-04-09 17:53:00
12:21 PM,10.4,3.2,73,30.18,1.0,NE,16.1,-,0.01,Snow,Light Snow,40,2013-04-09 18:21:00
12:53 PM,10.9,5.0,77,30.40,1.0,NE,15.0,-,0.02,Snow,Light Snow,40,2013-04-09 18:53:00
1:08 PM,10.4,3.2,73,30.18,0.8,NNE,15.0,-,0.00,Snow,Light Snow,30,2013-04-09 19:08:00
1:19 PM,10.4,5.0,79,30.18,0.5,NE,15.0,-,0.01,Snow,Snow,40,2013-04-09 19:19:00
1:53 PM,10.9,5.0,77,30.39,0.5,NNE,16.1,-,0.02,Snow,Snow,30,2013-04-09 19:53:00
2:04 PM,10.4,5.0,79,30.17,0.2,NNE,16.1,-,0.01,Snow,Heavy Snow,30,2013-04-09 20:04:00
2:49 PM,10.4,6.8,85,30.19,0.5,ENE,11.5,-,0.05,Snow,Snow,60,2013-04-09 20:49:00
2:53 PM,10.9,6.1,81,30.42,0.5,ENE,10.4,-,0.05,Snow,Snow,70,2013-04-09 20:53:00
3:09 PM,10.4,6.8,85,30.19,0.2,NE,10.4,-,0.02,Snow,Heavy Snow,40,2013-04-09 21:09:00
3:36 PM,10.4,6.8,85,30.19,0.5,NE,8.1,-,0.05,Snow,Snow,50,2013-04-09 21:36:00
3:51 PM,10.4,3.2,73,30.19,1.2,NNE,16.1,-,0.06,Snow,Light Snow,30,2013-04-09 21:51:00
3:53 PM,10.0,3.9,76,30.43,1.2,NNE,13.8,-,0.06,Snow,Light Snow,30,2013-04-09 21:53:00
4:22 PM,10.4,5.0,79,30.19,0.5,NE,15.0,-,0.00,Snow,Snow,50,2013-04-09 22:22:00
4:31 PM,10.4,5.0,79,30.19,0.2,NE,16.1,-,0.02,Snow,Heavy Snow,50,2013-04-09 22:31:00
4:38 PM,10.4,5.0,79,30.19,0.2,NE,15.0,-,0.04,Snow,Heavy Snow,50,2013-04-09 22:38:00
4:53 PM,10.0,6.1,84,30.42,0.2,NE,11.5,-,0.07,Fog-Snow,Snow,50,2013-04-09 22:53:00
5:53 PM,10.9,6.1,81,30.44,0.2,NE,12.7,-,0.06,Snow,Heavy Snow,50,2013-04-09 23:53:00
6:53 PM,10.9,6.1,81,30.45,0.2,NE,15.0,-,0.08,Snow,Heavy Snow,40,2013-04-10 00:53:00
7:27 PM,10.4,6.8,85,30.22,0.5,NE,10.4,-,0.04,Snow,Snow,40,2013-04-10 01:27:00
7:37 PM,10.4,6.8,85,30.22,0.5,ENE,6.9,-,0.04,Snow,Snow,60,2013-04-10 01:37:00
7:48 PM,10.4,6.8,85,30.22,1.2,ENE,8.1,-,0.05,Snow,Light Snow,70,2013-04-10 01:48:00
7:53 PM,10.9,6.1,81,30.45,0.8,ENE,6.9,-,0.05,Snow,Light Snow,70,2013-04-10 01:53:00
7:59 PM,10.4,6.8,85,30.22,1.0,ENE,6.9,-,0.00,Snow,Light Snow,70,2013-04-10 01:59:00
8:32 PM,10.4,6.8,85,30.23,1.0,NE,6.9,-,0.01,Snow,Light Snow,50,2013-04-10 02:32:00
8:44 PM,10.4,6.8,85,30.23,0.8,NE,6.9,-,0.01,Snow,Light Snow,50,2013-04-10 02:44:00
8:53 PM,10.9,7.0,84,30.46,0.8,NE,6.9,-,0.02,Snow,Light Snow,50,2013-04-10 02:53:00
9:22 PM,10.4,6.8,85,30.23,1.5,ENE,4.6,-,0.01,Snow,Light Snow,60,2013-04-10 03:22:00
9:28 PM,10.4,6.8,85,30.23,2.0,ENE,3.5,-,0.01,Snow,Light Snow,60,2013-04-10 03:28:00
9:53 PM,10.9,7.0,84,30.46,1.2,Calm,Calm,-,0.01,Snow,Light Snow,0,2013-04-10 03:53:00
10:15 PM,10.4,6.8,85,30.22,0.8,Calm,Calm,-,0.01,Snow,Light Snow,0,2013-04-10 04:15:00
10:33 PM,10.4,6.8,85,30.21,1.0,Calm,Calm,-,0.01,Snow,Light Snow,0,2013-04-10 04:33:00
10:53 PM,9.0,6.1,88,30.44,1.2,Calm,Calm,-,0.01,Snow,Light Snow,0,2013-04-10 04:53:00
11:44 PM,8.6,3.2,79,30.19,2.0,West,4.6,-,0.01,Snow,Light Snow,280,2013-04-10 05:44:00
11:53 PM,7.0,3.0,84,30.43,2.5,West,5.8,-,0.01,Snow,Light Snow,280,2013-04-10 05:53:00